Terminal Aerodrome Forecast
Issued by NWS State College, PA

Home | Current Version | Previous Version | Text Only | Print | Product List | Glossary On
Versions: 1 2 3 4 5 6 7 8 9 10 11 12 13 14 15 16 17 18 19 20 21 22 23 24 25 26 27 28 29 30 31 32 33 34 35 36 37 38 39 40 41 42 43 44 45 46 47 48 49 50
714
FTUS41 KCTP 121146
TAFMDT
TAF
KMDT 121146Z 1212/1312 25005KT P6SM SCT250
     FM122200 24006KT 2SM -SN OVC030
     FM130400 29010KT 5SM -SHSN OVC040
     FM130700 29016G26KT P6SM BKN050=

USA.gov is the U.S. government's official web portal to all federal, state and local government web resources and services.